Find Starlink 11501

NORAD ID: 62268 Int'l Des: 2024-237 Owner: SPXS Country: US Constellation: starlink operational
LEOCIRCULAR

当前视图

正在加载3D地球...

About Starlink 11501

Starlink 11501 (NORAD 62268) is a starlink constellation satellite (v2 mini d2c) launched Dec 8, 2024 by SPXS of US. It operates in LEO, CIRCULAR orbit with a mass of 960.00 kg.

关于 Starlink 11501

正在加载描述...

即将过境

Passes for default location (London). Set your location on the main map for personalized predictions.

高度历史

Loading altitude history...

两行轨道根数

1 62268U 24237B 26175.89190633 .00257184 00000-0 19391-2 0 9994
2 62268 42.9994 130.3213 0001469 248.2464 111.8248 15.70929775 89864
Epoch: Jun 24, 2026 • Age: 23 hours

当前状态

高度 361.2 km
速度 7.69 km/s
星下点 -26.64°S, 123.47°W
发射日期 Dec 8, 2024
运行时间 1.5 years
类型 internet

技术详情

分类 Payload
质量 960.00 kg
干质量 910.00 kg
总质量 960.00 kg
长度 0.30 m
直径 4.10 m
跨度 29.00 m
形状 Box + pan
制造商 SPXS
平台类型 Starlink V2MD
阶段状态 In Orbit
所有者/国家 SPXS/US

Most Searched